Location: ???????
(54.9996°N, 37.9529°E)
Time: 19:10:14
(UTC+00:00)

CZ-2C R/B - Pass Details

Date: 14 April 2024
Orbit: 666 x 779 km, 98.4° (Epoch: 26 May)

Event Time Altitude Azimuth Distance (km) Brightness Sun altitude
Rises 00:43:59 0° 18° (NNE) 3,260 6.8 -13.7°
Reaches altitude 10° 00:46:23 10° 25° (NNE) 2,336 6.1 -13.4°
Maximum altitude 00:51:23 47° 99° (E) 1,026 3.5 -12.9°
Drops below altitude 10° 00:56:21 10° 173° (S) 2,327 4.7 -12.3°
Sets 00:58:45 0° 179° (S) 3,245 5.4 -12.0°
